Regional Weather Roundup
Issued by NWS Charleston, SC

Current Version | Previous Version | Graphics & Text | Print | Product List | Glossary On
Versions: 1 2 3 4 5 6 7 8 9 10 11 12 13 14 15 16 17 18 19 20 21 22 23 24 25 26 27 28 29 30 31 32 33 34 35 36 37 38 39 40 41 42 43 44 45 46 47 48 49 50
000 ASUS42 KCHS 271512 RWRCHS REGIONAL WEATHER ROUNDUP NATIONAL WEATHER SERVICE CHARLESTON SC 1100 AM EDT TUE JUN 27 2017 NOTE: "FAIR" INDICATES FEW OR NO CLOUDS BELOW 12,000 FEET WITH NO SIGNIFICANT WEATHER AND/OR OBSTRUCTIONS TO VISIBILITY. NOT ALL STATIONS ARE QUALITY CONTROLLED. USE DATA WITH CAUTION... ESPECIALLY DEWPOINT OBSERVATIONS. SCZ027-030-031-034>040-042>050-271600- ...SOUTHEAST SOUTH CAROLINA... CITY SKY/WX TMP DP RH WIND PRES REMARKS N CHARLESTON PTSUNNY 83 66 56 N6 30.04S WATERFRONT PRK N/A 82 68 62 VRB3 30.02S JOHNS ISLAND FAIR 82 66 57 N5 30.03F PINOPOLIS N/A 79 68 69 NW5 29.98S MONCKS CORNER FAIR 81 64 57 N6 30.05R SUMMERVILLE FAIR 81 66 61 N6 30.05S BEAUFORT MCAS CLOUDY 84 71 65 N5 30.04S BEAUFORT ARPT FAIR 81 68 65 N6 30.04S HILTON HEAD IS MOSUNNY 82 70 65 N7 30.04S WALTERBORO MOSUNNY 81 68 65 N8 30.06R ALLENDALE FAIR 82 68 61 CALM 30.05R ...SOUTHERN MIDLANDS AND PEE DEE... CITY SKY/WX TMP DP RH WIND PRES REMARKS GEORGETOWN FAIR 81 63 54 CALM 30.05S KINGSTREE FAIR 79 64 61 NW3 30.05S ORANGEBURG MOSUNNY 83 61 47 NW5 30.05S BARNWELL FAIR 84 68 58 CALM 30.05F AIKEN FAIR 81 61 50 W6 30.10S MANNING FAIR 81 70 69 N13G20 30.05S COLUMBIA CLOUDY 83 61 47 NW8 30.05S SUMTER PTSUNNY 82 62 50 NW6 30.03S FLORENCE MOSUNNY 82 62 50 W6 30.05S MYRTLE BEACH SUNNY 82 64 54 NW8 30.05R N MYRTLE BEACH MOSUNNY 82 65 56 VRB3 30.04S $$ GAZ063-065-086>088-099>101-113>116-118-119-134>141-150-271600- ...SOUTHEAST GEORGIA... CITY SKY/WX TMP DP RH WIND PRES REMARKS SAVANNAH ARPT CLOUDY 83 70 64 NE6 30.04S HUNTER AAF CLOUDY 82 72 69 CALM 30.01F FORT STEWART PTSUNNY 81 72 74 N5 30.03R STATESBORO PTSUNNY 82 72 71 N3 30.05S SYLVANIA CLOUDY 82 72 72 N3 30.06S CLAXTON CLOUDY 81 71 72 N3 30.05S ...CSRA...CENTRAL AND FAR SOUTHEAST GEORGIA... CITY SKY/WX TMP DP RH WIND PRES REMARKS THOMSON PTSUNNY 79 61 52 N6 30.12F AUGUSTA-BUSH MOSUNNY 84 67 56 VRB3 30.05R AUGUSTA-DANIEL CLOUDY 81 60 48 NW5 30.07S SWAINSBORO PTSUNNY 81 70 69 NW5 30.07S VIDALIA CLOUDY 82 73 74 NE7 30.06S EASTMAN PTSUNNY 82 63 53 NE7 30.08S HAZLEHURST PTSUNNY 83 75 78 CALM 30.04S HX 90 ALMA CLOUDY 82 72 71 E3 30.04S WAYCROSS CLOUDY 84 78 81 NE5 30.04F HX 94 JESUP PTSUNNY 82 70 65 NE3 30.04S BAXLEY CLOUDY 82 79 89 NE5 30.04S HX 93 BRUNSWICK PTSUNNY 82 77 83 N3 30.04S HX 91 SAINT SIMONS CLOUDY 82 74 76 N6 30.02F $$ SCZ027-028-034-036>038-045-046-048>050-GAZ119-141-271600- ...LAKE AND SUPPLEMENTAL COASTAL OBSERVATIONS... STATION/POSITION TIME TEMP WIND PRES WAVE SWELL AIR SEA DIR/SP/G HT/PER HT/PER/DIR (UTC) (F) (DEG/KT/KT) (MB) (FT/S) (FT/S/D) WINYAH BAY 1345 78 310/ 3 1017.0 LAKE MURRAY 1420 77 320/ 4/ 8 1016.9R ACE BASIN NERRS 1345 82 20/ 1 1018.0 FORT PULASKI 1448 80 83 40/ 5/ 7 1017.4F SAPELO ISLAND 1400 81 40/ 6 1017.0 $$ ANZ835-935-AMZ111-154-330-350-352-354-370-450-454-472-271600- ...C-MAN AND BUOY OBSERVATIONS... STATION/POSITION TIME TEMP WIND PRES WAVE SWELL AIR SEA DIR/SP/G HT/PER HT/PER/DIR (UTC) (F) (DEG/KT/KT) (MB) (FT/S) (FT/S/D) BUOY 41004 1450 79 81 30/ 10/ 14 1016.6R 2/ 8 2/110/ 8 BUOY 41008 1350 77 81 50/ 8/ 10 1016.3 1/ 8 2/140/ 8 FOLLY BEACH CMAN 1400 81 10/ 5/ 6 1017.9R CAPERS NEARSHORE 1408 85 83 20/ 8/ 12 1017.0F FRIPP NEARSHORE 1408 80 83 60/ 6/ 8 1016.5F STATION/POSITION TIME TEMP WIND PRES WAVE SWELL AIR SEA DIR/SP/G HT/PER HT/PER/DIR (UTC) (F) (DEG/KT/KT) (MB) (FT/S) (FT/S/D) 5E ST. MARYS GA 1430 80 N/A 2/ 8 FRYING PAN BUOY 1450 79 80 10/ 6/ 6 1017.0R 2/ 9 2/140/ 9 BUOY 41025 1450 78 81 350/ 8/ 10 1016.6R 2/ 7 2/ 70/ 7 CAPE LOOKOUT NC 1400 78 320/ 5/ 7 1016.4S BUOY 41002 1350 78 80 260/ 12/ 14 1017.2 4/ 5 2/220/ 6 BUOY 41010 1450 83 84 220/ 12/ 14 1016.8R 3/ 7 2/140/ 7 ST AUGUSTINE FL 1500 81 78 320/ 4/ 5 1016.9F $$

USA.gov is the U.S. government's official web portal to all federal, state and local government web resources and services.